Torna al catalogo

QIANFAN-200

AttivoComunicazioniPO
NORAD 69418·PAYLOAD·🇨🇳 China

Lanciato Jun 5, 2026 da Wenchang Space Launch Site

Loading…

Prossimi Passaggi (prossime 24 ore)

TLE

AggiornatoSource: Space-Track

Epoca: Sep 14, 2026, 13:36 UTC

1 69418U 26125T   26257.56694388  .00000005  00000-0 -10783-4 0  9994
2 69418  88.9884 270.9241 0001947 106.0567 254.0799 13.51026162 14015

Traccia QIANFAN-200 in tempo reale con AllMySat

Download on the App Store